Campo, CA

1:58 PM PDT on June 22, 2017 (GMT -0700)
Campo

Weather History for KCZZ - October, 2011

Change the Weather History Date:

Sunday, October 23, 2011

  Actual Average Record
Temperature  
Mean Temperature 68 °F 59 °F  
Max Temperature 90 °F 77 °F 93 °F (2003)
Min Temperature 45 °F 41 °F 26 °F (1996)
Degree Days  
Heating Degree Days 0 6  
Month to date heating degree days 82 102  
Since 1 July heating degree days 119 152  
Cooling Degree Days 3 0  
Month to date cooling degree days 39 27  
Year to date cooling degree days 733 838  
Growing Degree Days 18 (Base 50)    
Moisture  
Dew Point 36 °F    
Average Humidity 36    
Maximum Humidity 60    
Minimum Humidity 11    
Precipitation  
Precipitation 0.00 in 0.03 in 0.09 in (1987)
Month to date precipitation 0.38 0.57  
Year to date precipitation 8.55 12.08  
Since 1 July precipitation 0.80  
Snow  
Snow 0.00 in - - ()
Month to date snowfall 0.0  
Year to date snowfall 0.0  
Snow Depth 0.00 in    
Sea Level Pressure  
Sea Level Pressure 29.92 in    
Wind  
Wind Speed 6 mph (ENE)    
Max Wind Speed 18 mph    
Max Gust Speed 22 mph    
T = Trace of Precipitation, MM = Missing Value Source: NWS Daily Summary

Daily Weather History Graph

Daily Weather History Graph

Search for Another Location

Airport or City:

Trip Planner

Search our weather history database for the weather conditions in past years. The results will help you decide how hot, cold, wet, or windy it might be!

Date:

Astronomy

Oct. 23, 2011 Rise Set
Actual Time 6:55 AM PDT 6:04 PM PDT
Civil Twilight 6:30 AM PDT 6:29 PM PDT
Nautical Twilight 6:01 AM PDT 6:57 PM PDT
Astronomical Twilight 5:33 AM PDT 7:26 PM PDT
Moon 3:19 AM PDT (10/23) 3:48 PM PDT (10/23)
Length of Visible Light 11h 58m
Length of Day
11h 08m
Waning Crescent, 13% of the Moon is Illuminated
Oct 23
Waning Crescent
Oct 26
New
Nov 2
First Quarter
Nov 10
Full
Nov 18
Last Quarter

Hourly Weather History & Observations

Time (PDT) Temp. Windchill Dew Point Humidity Pressure Visibility Wind Dir Wind Speed Gust Speed Precip Events Conditions
12:52 AM 55.0 °F - 37.9 °F 53% 29.93 in - NNE 3.5 mph - N/A   Unknown
1:52 AM 54.0 °F - 37.9 °F 55% 29.93 in - Calm Calm - N/A   Unknown
2:52 AM 53.1 °F - 37.9 °F 57% 29.92 in - NNE 3.5 mph - N/A   Unknown
3:52 AM 53.1 °F - 37.0 °F 55% 29.91 in - NE 4.6 mph - N/A   Unknown
4:52 AM 50.0 °F - 35.1 °F 57% 29.91 in - NE 4.6 mph - N/A   Unknown
5:52 AM 46.0 °F 43.9 °F 34.0 °F 63% 29.93 in - NE 4.6 mph - N/A   Unknown
6:52 AM 46.0 °F 43.9 °F 33.1 °F 61% 29.94 in - NE 4.6 mph - N/A   Unknown
7:52 AM 52.0 °F - 34.0 °F 50% 29.95 in - Variable 3.5 mph - N/A   Unknown
8:52 AM 66.0 °F - 41.0 °F 40% 29.95 in - Calm Calm - N/A   Unknown
9:52 AM 82.9 °F - 28.9 °F 14% 29.93 in - ENE 10.4 mph - N/A   Unknown
10:52 AM 84.9 °F - 30.0 °F 14% 29.92 in - ENE 15.0 mph 18.4 mph N/A   Unknown
11:52 AM 86.0 °F - 28.0 °F 12% 29.91 in - East 3.5 mph - N/A   Unknown
12:00 PM - - - N/A% - - North - - N/A   Unknown
12:52 PM 88.0 °F - 30.0 °F 12% 29.88 in - ESE 10.4 mph 16.1 mph N/A   Unknown
1:00 PM - - - N/A% - - North - - N/A   Unknown
1:52 PM 90.0 °F - 28.0 °F 11% 29.85 in - Calm Calm - N/A   Unknown
2:52 PM 88.0 °F - 30.9 °F 13% 29.84 in - SW 12.7 mph - N/A   Unknown
3:52 PM 82.9 °F - 46.0 °F 27% 29.86 in - SW 13.8 mph 17.3 mph N/A   Unknown
4:52 PM 80.1 °F - 44.1 °F 28% 29.88 in - SW 11.5 mph - N/A   Unknown
5:52 PM 75.0 °F - 44.1 °F 33% 29.90 in - SSW 5.8 mph - N/A   Unknown
6:52 PM 64.9 °F - 44.1 °F 47% 29.94 in - Calm Calm - N/A   Unknown
7:52 PM 57.9 °F - 39.9 °F 51% 29.96 in - NNE 3.5 mph - N/A   Unknown
8:52 PM 59.0 °F - 39.9 °F 49% 29.96 in - NNE 3.5 mph - N/A   Unknown
9:52 PM 53.1 °F - 37.9 °F 57% 29.96 in - NNE 3.5 mph - N/A   Unknown
10:52 PM 53.1 °F - 37.0 °F 55% 29.96 in - ENE 4.6 mph - N/A   Unknown
11:52 PM 52.0 °F - 37.0 °F 57% 29.95 in - ENE 4.6 mph - N/A   Unknown